GPM-CORE

Last updated on Mon Sep 07 2026 00:02:45 GMT+0000 (Coordinated Universal Time)

1 39574U 14009C 26249.64417921 .00004419 00000+0 99204-4 0 9994 2 39574 64.9708 35.1720 0011380 257.2537 102.7331 15.44778780710394
UTC large
Height (km)
Speed (km/s)
/
Latitude / Longitude
Inclination (degrees)
Orbital Period (minutes)
Azimuth
Elevation
Range (km)
Doppler Factor

Next 0 passes for location: London (51.5072 / 0.1276)

No passes found over London.
GPM-CORE